Wind_Speed
14 17 19 19 18 17 14 13 12 12 12 12 11 11 11 11 11 12 12 12 13 13 13 14 14 15 17 18 18 19 20 21 20 20 21 21 22 22 21 20 19 18 19
15 15 15 14 14 14 13 12 12 12 13 13 13 13 13 12 12 13 13 14 15 15 15 15 16 17 18 20 21 21 22 23 24 24 24 25 25 26 26 25 23 21 21
14 14 12 10 10 11 11 11 12 12 13 13 14 14 15 15 16 16 16 16 17 17 17 17 18 18 19 21 23 24 25 26 27 27 27 27 28 29 29 28 27 25 24
12 12 11 9 8 8 9 9 11 13 13 14 15 16 17 17 18 18 18 18 18 19 19 20 20 21 22 23 25 26 28 29 29 29 30 30 31 31 31 31 30 30 29
10 11 10 9 9 8 8 8 10 11 12 13 15 16 16 16 17 18 19 19 20 21 21 22 23 24 25 27 28 29 30 31 32 33 33 34 35 36 36 35 35 35 34
10 10 10 10 10 9 8 8 8 9 10 11 12 13 14 15 15 16 17 18 19 21 23 25 27 28 29 29 30 31 32 34 35 37 37 38 39 39 39 38 38 38 38
11 10 11 11 11 10 8 7 7 8 9 9 10 11 12 13 14 15 16 18 19 20 21 23 26 28 30 31 32 32 33 34 35 36 37 37 38 38 37 36 36 35 36
13 12 12 12 11 10 9 8 9 10 11 10 10 11 11 11 12 14 15 16 17 19 20 22 23 25 27 29 30 31 32 33 34 35 35 35 35 36 35 34 33 33 32
12 11 12 11 10 9 9 9 11 12 13 13 13 14 14 15 15 16 16 17 18 19 19 20 21 23 26 27 28 30 31 32 33 34 35 35 34 35 35 35 34 33 32
13 11 11 10 9 9 10 12 13 15 17 18 18 18 18 18 18 18 19 19 20 20 21 21 22 23 25 27 28 30 31 32 33 34 35 35 35 35 35 35 35 34 33
16 14 12 9 9 10 11 13 15 17 19 20 21 21 21 19 19 20 20 21 21 22 22 23 24 25 27 28 30 31 33 34 34 35 36 36 36 36 36 36 35 35 34
16 15 13 10 9 10 12 13 15 16 18 19 20 22 22 21 21 21 21 21 22 23 23 24 25 26 27 29 31 33 34 35 36 36 37 38 38 39 39 38 38 38 38
16 15 14 13 12 11 13 14 15 16 17 18 19 21 22 23 22 23 23 23 24 25 25 26 26 28 29 31 32 34 35 36 37 39 40 40 41 42 43 43 43 43 42
17 16 15 14 13 13 14 15 16 17 18 19 20 21 22 24 25 26 27 28 28 28 28 28 29 30 32 34 35 37 38 40 40 42 43 45 46 47 48 48 48 48 47
17 17 16 16 15 15 16 17 17 18 20 21 22 23 24 25 26 28 29 29 30 29 29 30 31 33 34 36 38 39 42 44 45 46 47 48 51 52 54 53 52 52 51
18 17 18 19 20 20 19 19 19 21 22 23 24 24 25 26 27 28 28 29 30 31 32 33 34 35 36 37 39 41 44 46 48 49 49 50 51 53 55 57 56 55 54
19 19 20 22 24 24 22 21 20 21 22 22 22 23 25 26 28 28 29 31 32 33 35 36 37 38 40 41 43 45 47 49 50 51 52 53 53 54 56 58 59 59 58
20 21 22 24 25 25 24 22 21 21 21 21 22 24 25 28 29 31 32 34 35 37 38 39 41 42 44 46 48 50 51 53 54 56 56 56 57 58 59 61 62 62 62
20 21 23 25 26 25 24 23 23 23 23 24 25 27 28 30 32 34 36 38 39 41 42 43 44 46 47 49 51 53 55 57 59 60 61 61 62 63 64 66 67 68 68
20 22 24 26 27 27 27 27 27 28 28 29 30 31 33 34 36 38 40 41 43 45 46 48 49 51 52 53 54 56 58 60 60 61 62 63 64 65 67 69 71 72 73
22 24 26 29 31 31 32 32 33 34 34 34 34 34 36 37 39 41 43 45 46 48 50 52 53 55 56 57 58 59 59 59 58 58 57 57 58 60 63 66 68 71 73
25 27 30 33 34 35 36 36 37 38 38 37 37 37 39 41 43 45 47 49 51 52 54 55 57 58 59 60 61 60 56 54 53 51 50 51 53 54 55 57 58 60 63
28 30 33 35 37 37 38 39 39 40 41 41 41 42 44 46 48 50 52 54 55 57 58 59 60 60 61 61 59 55 50 48 46 45 45 47 48 50 53 55 55 55 54
32 33 36 38 39 39 39 41 42 43 44 44 44 45 47 50 52 54 56 57 59 59 60 61 61 61 60 55 50 47 45 45 45 44 44 46 48 50 51 52 52 53 52
34 36 38 40 40 40 41 42 44 45 46 47 47 48 51 54 57 59 59 59 60 61 62 61 59 56 51 45 42 43 43 45 46 48 49 50 52 53 53 52 51 50 50
37 39 41 42 42 42 42 44 46 47 48 48 49 51 54 58 61 62 61 60 61 61 61 58 54 48 43 41 42 43 45 46 48 51 52 53 54 55 56 55 52 50 48
Wind_Direction
301 297 294 291 287 284 282 282 285 286 284 282 282 283 285 289 289 287 283 279 277 274 272 269 267 266 264 262 262 264 267 270 271 271 272 274 277 276 274 272 273 271 270
317 312 303 295 289 285 281 278 277 278 278 279 280 281 281 280 281 283 284 282 279 276 272 270 268 267 264 263 263 266 269 271 273 273 273 274 276 277 278 277 276 273 270
326 325 318 309 297 289 281 276 274 273 276 279 283 285 286 284 282 282 284 284 281 277 273 269 269 269 270 268 268 270 272 273 274 275 275 276 276 276 277 278 276 272 268
335 333 328 323 311 301 292 283 278 278 282 286 288 288 287 285 282 280 280 280 278 276 274 273 274 275 275 275 275 275 275 275 275 276 276 277 277 277 276 274 273 270 267
347 349 345 340 333 321 306 296 288 289 293 296 296 295 293 289 286 285 285 283 281 280 278 277 276 276 275 276 276 276 276 277 276 277 277 278 278 279 278 275 273 271 269
351 354 354 352 353 344 324 308 299 298 299 302 303 301 299 296 294 293 292 291 290 288 285 282 279 276 274 274 275 276 277 277 277 277 277 279 279 280 280 278 275 272 269
346 346 344 345 348 346 332 316 311 306 303 302 305 306 304 301 299 297 295 293 293 291 290 287 285 282 279 277 275 275 276 276 277 278 278 277 278 278 277 276 274 271 269
342 342 345 346 346 346 345 330 318 310 306 305 304 304 303 302 302 300 298 297 295 293 291 290 289 287 285 283 281 279 278 277 277 277 277 276 276 276 276 275 273 271 269
342 341 346 346 343 339 333 325 313 306 304 302 301 302 303 301 300 297 295 293 291 289 287 286 285 284 284 284 283 282 281 280 279 278 277 276 276 275 274 274 274 273 270
359 356 356 354 345 332 322 317 310 306 304 303 303 303 304 304 302 298 294 290 287 284 281 278 277 278 279 281 282 282 281 280 279 279 278 278 277 275 273 272 272 271 270
12 13 10 6 355 337 325 317 311 307 305 304 303 304 304 303 301 299 296 293 291 288 284 279 275 273 274 275 276 278 278 279 279 279 279 279 277 275 273 272 271 270 269
14 17 16 9 354 342 334 326 318 310 305 303 303 302 301 299 298 297 297 298 298 295 291 286 282 279 276 274 274 275 276 278 278 278 278 277 277 276 274 272 271 271 270
11 13 10 6 355 346 332 323 315 307 301 300 301 300 299 297 296 295 295 295 296 296 296 294 291 288 284 281 278 276 276 278 278 278 276 275 274 274 273 271 270 269 269
4 4 2 355 348 338 328 321 309 300 297 295 295 296 297 297 296 295 296 296 297 299 299 299 298 295 291 287 284 282 280 280 279 278 277 276 275 274 272 271 270 269 268
354 357 354 350 344 336 328 318 308 301 297 294 296 296 296 299 300 301 301 302 303 304 304 303 301 300 298 294 291 288 287 285 283 282 280 279 277 275 273 273 272 271 270
344 348 347 345 343 339 332 322 313 306 302 300 300 298 298 300 302 303 304 305 306 306 306 305 302 300 298 296 293 291 289 287 286 285 283 282 279 276 273 271 270 269 269
334 338 337 338 340 340 336 329 322 317 313 310 308 306 305 305 306 306 307 307 307 307 305 303 302 301 299 297 295 293 290 288 286 285 285 283 281 278 274 271 269 268 267
326 331 332 333 338 341 341 337 333 329 327 323 319 316 313 310 309 309 308 307 307 306 304 301 300 299 297 296 294 293 291 288 287 285 284 283 281 279 277 275 271 269 267
320 326 329 330 333 338 340 339 337 334 330 327 324 320 316 313 311 310 308 307 306 304 303 301 299 298 296 294 292 291 290 288 286 285 284 283 281 279 278 277 275 272 271
314 321 326 327 327 329 333 334 334 332 330 327 324 322 320 318 316 313 311 309 308 306 304 302 301 299 297 294 292 291 290 288 286 285 284 283 282 280 279 278 277 275 274
310 317 321 322 322 322 325 327 330 331 330 328 326 326 325 323 320 317 314 312 309 307 305 303 301 299 297 295 293 292 291 288 287 285 285 284 284 282 280 279 278 276 274
308 313 317 317 316 316 319 322 325 329 329 326 325 325 325 324 322 320 316 313 310 307 305 302 300 298 296 294 293 292 289 287 286 286 286 285 285 284 284 282 281 280 277
307 308 311 312 311 312 314 317 319 324 326 324 323 323 324 323 322 319 316 313 310 307 305 302 300 298 296 295 293 290 288 287 286 285 286 287 288 288 287 285 284 282 280
301 303 305 305 307 308 309 311 313 316 319 320 320 321 321 320 319 317 314 312 310 308 305 303 302 300 298 296 292 289 289 289 289 288 289 290 289 289 288 287 285 282 280
295 297 298 299 301 302 303 305 308 310 314 316 317 318 318 318 317 315 313 312 310 308 306 304 302 301 299 296 293 291 291 291 291 292 293 293 293 292 291 289 285 282 279
290 291 291 292 294 295 296 299 303 306 310 312 313 314 315 316 316 314 313 312 310 308 306 304 302 300 298 295 294 293 292 292 293 293 294 294 294 294 293 292 288 283 278
Height
5888 5887 5886 5885 5884 5884 5885 5886 5886 5887 5888 5889 5890 5890 5890 5890 5890 5890 5891 5890 5890 5891 5891 5892 5893 5893 5894 5894 5894 5895 5895 5896 5897 5897 5897 5897 5897 5897 5897 5897 5896 5896 5896
5885 5884 5883 5882 5881 5881 5881 5882 5883 5884 5885 5886 5887 5887 5888 5888 5888 5888 5888 5888 5888 5888 5889 5889 5890 5890 5891 5891 5891 5891 5891 5892 5892 5893 5893 5893 5893 5892 5892 5892 5892 5892 5892
5882 5881 5880 5880 5879 5879 5879 5880 5881 5882 5883 5883 5884 5885 5885 5885 5885 5885 5885 5885 5886 5886 5886 5886 5886 5887 5887 5887 5887 5887 5887 5887 5888 5888 5888 5888 5888 5887 5887 5887 5887 5887 5888
5880 5880 5879 5878 5878 5877 5877 5878 5879 5880 5880 5881 5882 5882 5882 5882 5882 5882 5882 5882 5882 5883 5882 5882 5883 5883 5883 5883 5883 5883 5883 5882 5882 5883 5883 5882 5882 5882 5882 5882 5882 5882 5882
5880 5879 5879 5878 5878 5877 5876 5876 5877 5878 5878 5879 5879 5879 5879 5878 5878 5878 5878 5879 5879 5879 5879 5879 5879 5879 5879 5879 5879 5878 5878 5878 5877 5877 5877 5876 5875 5874 5875 5875 5875 5875 5875
5880 5879 5879 5878 5877 5876 5876 5876 5876 5876 5876 5876 5876 5876 5875 5875 5874 5874 5874 5875 5875 5875 5875 5875 5874 5874 5874 5874 5874 5873 5873 5872 5871 5871 5871 5870 5868 5867 5866 5867 5867 5868 5868
5880 5879 5879 5878 5876 5876 5875 5875 5875 5875 5875 5875 5874 5874 5873 5872 5872 5871 5871 5871 5871 5871 5870 5870 5869 5869 5869 5869 5869 5868 5867 5866 5865 5864 5864 5863 5861 5860 5859 5858 5858 5859 5859
5879 5878 5877 5876 5875 5874 5874 5874 5874 5874 5874 5873 5872 5872 5871 5870 5869 5868 5868 5867 5867 5867 5866 5865 5865 5864 5863 5863 5863 5862 5861 5860 5859 5858 5858 5857 5855 5854 5853 5852 5852 5852 5851
5877 5876 5875 5873 5873 5873 5872 5872 5872 5872 5872 5871 5870 5869 5868 5867 5866 5865 5864 5863 5863 5862 5861 5861 5860 5858 5858 5857 5856 5856 5855 5854 5853 5853 5852 5851 5850 5848 5847 5846 5846 5845 5845
5874 5873 5872 5871 5871 5871 5871 5870 5870 5869 5869 5868 5866 5865 5864 5863 5862 5860 5860 5859 5858 5857 5856 5855 5853 5852 5851 5851 5850 5849 5848 5847 5847 5846 5845 5844 5843 5842 5841 5840 5840 5839 5839
5873 5871 5870 5870 5870 5869 5868 5868 5867 5866 5865 5863 5862 5861 5859 5858 5857 5856 5855 5853 5852 5851 5850 5848 5847 5846 5845 5844 5843 5842 5841 5840 5839 5838 5837 5837 5836 5835 5834 5834 5833 5832 5832
5872 5870 5869 5868 5868 5867 5865 5864 5863 5861 5860 5859 5857 5856 5855 5854 5852 5851 5850 5848 5847 5845 5844 5842 5841 5839 5838 5837 5836 5835 5833 5832 5831 5830 5829 5829 5828 5827 5827 5826 5825 5825 5824
5872 5870 5869 5867 5866 5864 5862 5861 5859 5857 5856 5854 5853 5852 5851 5850 5848 5846 5845 5843 5841 5839 5837 5836 5834 5832 5831 5829 5828 5827 5825 5824 5823 5821 5820 5820 5819 5818 5818 5818 5817 5816 5816
5871 5869 5867 5865 5864 5862 5860 5857 5855 5853 5852 5850 5849 5848 5847 5845 5844 5842 5840 5838 5835 5833 5831 5829 5827 5825 5824 5822 5820 5818 5817 5815 5814 5812 5811 5810 5809 5809 5808 5807 5807 5807 5806
5868 5867 5865 5863 5861 5859 5857 5854 5852 5850 5848 5846 5845 5843 5842 5840 5838 5836 5834 5831 5829 5827 5824 5822 5820 5818 5816 5814 5812 5810 5807 5806 5804 5802 5801 5799 5798 5797 5797 5796 5795 5795 5795
5866 5864 5862 5860 5858 5856 5854 5851 5848 5846 5844 5842 5840 5838 5837 5835 5833 5831 5829 5826 5823 5821 5818 5815 5813 5811 5808 5806 5803 5800 5797 5794 5792 5790 5788 5787 5785 5784 5783 5783 5782 5782 5782
5862 5860 5858 5856 5854 5852 5850 5848 5845 5843 5840 5838 5836 5834 5832 5830 5828 5826 5824 5821 5818 5815 5812 5809 5806 5803 5800 5797 5794 5790 5787 5783 5780 5778 5775 5773 5772 5770 5769 5769 5769 5768 5768
5858 5856 5854 5852 5851 5849 5847 5845 5842 5840 5838 5835 5833 5831 5829 5826 5823 5820 5817 5814 5811 5808 5804 5801 5798 5795 5792 5788 5784 5780 5776 5772 5768 5765 5762 5759 5757 5756 5754 5753 5753 5752 5752
5854 5852 5850 5849 5847 5846 5844 5842 5839 5837 5834 5832 5829 5826 5823 5820 5817 5814 5810 5807 5803 5799 5795 5792 5788 5784 5781 5777 5772 5767 5763 5758 5754 5750 5747 5744 5742 5740 5738 5736 5735 5734 5733
5850 5848 5846 5845 5843 5842 5840 5838 5835 5832 5829 5826 5823 5820 5816 5813 5809 5805 5801 5796 5792 5788 5783 5779 5775 5771 5767 5762 5758 5753 5748 5743 5738 5734 5731 5728 5725 5722 5719 5717 5715 5714 5713
5845 5843 5841 5840 5838 5836 5834 5832 5828 5825 5822 5819 5816 5812 5808 5804 5800 5795 5791 5786 5781 5776 5771 5766 5761 5756 5751 5746 5742 5737 5732 5726 5722 5718 5715 5711 5708 5705 5702 5699 5696 5694 5692
5839 5837 5835 5833 5831 5829 5827 5824 5820 5817 5814 5811 5807 5803 5799 5795 5790 5785 5780 5775 5769 5764 5759 5753 5747 5742 5736 5731 5726 5721 5717 5713 5708 5704 5700 5697 5693 5689 5685 5681 5678 5675 5672
5834 5832 5829 5827 5824 5821 5819 5816 5812 5809 5806 5803 5799 5794 5789 5784 5779 5773 5768 5763 5757 5751 5745 5739 5733 5726 5720 5715 5709 5704 5700 5698 5695 5693 5689 5684 5679 5675 5670 5666 5662 5659 5656
5828 5826 5823 5820 5817 5814 5811 5808 5805 5802 5799 5795 5790 5785 5779 5774 5768 5762 5756 5750 5744 5737 5730 5723 5716 5710 5704 5698 5693 5689 5686 5683 5680 5679 5677 5672 5667 5661 5656 5652 5648 5644 5641
5821 5819 5816 5813 5810 5807 5804 5801 5798 5795 5791 5786 5781 5775 5769 5763 5757 5750 5743 5736 5729 5722 5714 5707 5700 5694 5688 5683 5679 5677 5674 5671 5667 5664 5661 5658 5652 5646 5641 5637 5633 5629 5626
5813 5811 5808 5805 5802 5799 5797 5793 5790 5786 5782 5777 5771 5765 5759 5752 5744 5736 5728 5721 5713 5706 5698 5691 5685 5679 5675 5671 5668 5664 5661 5658 5654 5649 5646 5642 5638 5631 5624 5619 5616 5614 5611